CW3224 Weather Reports


time (UTC)temp
C
wind
direction
speed
KPH
gust
KPH
rain 1hr
cm
rain 24hr
cm
rain mn
cm
humidity
%
barometer
mb
20200531081848 13 131 0.0 3.2 0.00 0.00 0.00 78 1011.7
20200531080846 13 89 0.0 0.0 0.00 0.00 0.00 78 1011.5
20200531075846 13 177 0.0 0.0 0.00 0.00 0.00 77 1011.5
20200531074843 13 181 0.0 0.0 0.00 0.03 0.00 77 1011.5
20200531073844 14 215 0.0 4.8 0.00 0.03 0.00 76 1011.4
20200531072843 14 161 0.0 4.8 0.00 0.03 0.00 76 1011.4
20200531071843 15 179 0.0 0.0 0.00 0.05 0.00 75 1011.3
20200531070839 15 179 0.0 1.6 0.00 0.25 0.00 74 1011.3
20200531065836 15 179 0.0 3.2 0.00 0.25 0.00 74 1011.3
20200531064835 15 255 0.0 8.0 0.00 0.25 0.00 73 1011.0
20200531063835 15 112 0.0 3.2 0.00 0.25 0.00 73 1010.9
20200531062834 15 159 0.0 3.2 0.00 0.25 0.00 73 1010.9
20200531061835 16 207 0.0 1.6 0.00 0.25 0.00 73 1011.1
20200531060834 16 237 0.0 4.8 0.00 0.25 0.00 73 1011.1
20200531055835 15 208 1.6 8.0 0.00 0.25 0.00 73 1011.1
20200531054829 15 282 0.0 4.8 0.00 0.25 0.00 74 1010.9
20200531053829 15 185 0.0 3.2 0.00 0.25 0.00 74 1010.9
20200531052830 15 10 1.6 4.8 0.00 0.25 0.00 74 1010.9
20200531051831 15 131 0.0 4.8 0.00 0.25 0.00 74 1010.9
20200531050821 15 230 1.6 9.7 0.00 0.25 0.00 73 1010.8
20200531045821 15 272 0.0 1.6 0.00 0.25 0.00 72 1010.8
20200531044823 16 166 0.0 0.0 0.00 0.25 0.00 71 1010.9
20200531043819 16 166 0.0 0.0 0.00 0.25 0.00 70 1010.8
20200531042817 16 166 0.0 0.0 0.00 0.25 0.00 70 1010.8
20200531041819 16 166 0.0 0.0 0.00 0.25 0.00 69 1010.8
20200531040811 16 166 0.0 0.0 0.00 0.25 0.00 68 1010.9
20200531035811 17 165 0.0 3.2 0.00 0.25 0.25 69 1010.9
20200531034804 17 178 1.6 6.4 0.00 0.25 0.25 68 1010.9
20200531033805 17 184 1.6 6.4 0.00 0.25 0.25 68 1010.7
20200531032802 17 84 1.6 8.0 0.00 0.25 0.25 68 1010.7
20200531031800 17 123 1.6 9.7 0.00 0.25 0.25 68 1010.7
20200531030801 17 35 3.2 9.7 0.00 0.25 0.25 68 1010.8
20200531025801 17 291 1.6 8.0 0.00 0.25 0.25 68 1010.8
20200531024801 17 257 3.2 12.9 0.00 0.25 0.25 69 1010.8
20200531023801 16 319 1.6 8.0 0.00 0.25 0.25 70 1010.5
20200531022800 16 195 1.6 9.7 0.00 0.25 0.25 73 1010.5
20200531021801 16 224 0.0 0.0 0.00 0.25 0.25 74 1009.9
20200531020802 17 175 0.0 0.0 0.00 0.25 0.25 71 1010.0
20200531015754 17 175 0.0 0.0 0.00 0.25 0.25 69 1010.0
20200531014753 17 175 0.0 0.0 0.00 0.25 0.25 69 1010.1
20200531013754 17 175 0.0 0.0 0.00 0.25 0.25 67 1010.2
20200531012752 18 175 0.0 0.0 0.00 0.25 0.25 66 1010.2
20200531011752 18 175 0.0 0.0 0.00 0.25 0.25 65 1010.0
20200531010753 19 175 0.0 0.0 0.00 0.25 0.25 63 1009.8
20200531005750 19 175 0.0 0.0 0.00 0.25 0.25 62 1009.8
20200531004751 20 175 0.0 0.0 0.00 0.25 0.25 61 1009.7
20200531003750 20 175 0.0 3.2 0.00 0.25 0.25 59 1009.4
20200531002752 21 175 0.0 0.0 0.00 0.25 0.25 55 1009.4
20200531001751 21 175 0.0 0.0 0.00 0.25 0.25 53 1009.4
20200531000747 21 175 0.0 0.0 0.00 0.25 0.25 53 1009.5
20200530235745 22 175 0.0 3.2 0.00 0.25 0.25 52 1009.5
20200530234744 22 173 0.0 3.2 0.00 0.25 0.25 51 1009.5
20200530233744 22 173 0.0 4.8 0.00 0.25 0.25 50 1009.3
20200530232745 22 286 0.0 4.8 0.00 0.25 0.25 52 1009.3
20200530231742 23 18 0.0 6.4 0.00 0.25 0.25 53 1009.3
20200530230743 23 207 0.0 4.8 0.00 0.25 0.25 51 1009.3
20200530225742 23 110 0.0 3.2 0.00 0.25 0.25 50 1009.3
20200530224742 23 148 0.0 3.2 0.00 0.25 0.25 53 1009.2
20200530223739 23 355 0.0 4.8 0.00 0.25 0.25 53 1009.0
20200530222740 23 85 1.6 4.8 0.00 0.25 0.25 49 1009.0
20200530221741 24 107 1.6 3.2 0.00 0.25 0.25 52 1009.0
20200530220736 24 147 1.6 6.4 0.00 0.25 0.25 49 1008.8
20200530215734 24 160 0.0 0.0 0.00 0.25 0.25 51 1008.8
20200530214732 24 162 1.6 6.4 0.00 0.25 0.25 48 1008.8
20200530213731 25 195 1.6 8.0 0.00 0.25 0.25 47 1008.8
20200530212731 25 114 3.2 8.0 0.00 0.25 0.25 48 1008.8
20200530211728 25 144 1.6 6.4 0.00 0.25 0.25 46 1008.8
20200530210726 25 89 1.6 9.7 0.00 0.25 0.25 49 1008.8
20200530205726 25 329 1.6 6.4 0.00 0.25 0.25 44 1008.8
20200530204727 25 130 1.6 6.4 0.00 0.25 0.25 46 1008.9
20200530203723 25 125 1.6 8.0 0.00 0.25 0.25 48 1008.8
20200530202724 25 90 1.6 8.0 0.00 0.25 0.25 48 1008.8
20200530201722 25 189 1.6 6.4 0.00 0.25 0.25 46 1008.8
20200530200722 25 89 1.6 8.0 0.00 0.25 0.25 48 1008.8
20200530195719 25 35 3.2 9.7 0.00 0.25 0.25 49 1008.8
20200530194715 25 27 1.6 11.3 0.00 0.25 0.25 47 1008.9
20200530193715 25 197 3.2 9.7 0.00 0.25 0.25 49 1008.8
20200530192711 25 127 3.2 14.5 0.00 0.25 0.25 48 1008.8
20200530191712 25 222 1.6 12.9 0.00 0.25 0.25 46 1008.8
20200530190711 25 190 3.2 11.3 0.00 0.25 0.25 47 1009.0
20200530185710 26 232 3.2 14.5 0.00 0.25 0.25 48 1009.0
20200530184708 26 254 3.2 9.7 0.00 0.25 0.25 49 1009.0
20200530183708 26 229 3.2 8.0 0.00 0.25 0.25 49 1009.0
20200530182709 25 74 3.2 16.1 0.00 0.25 0.25 47 1009.0
20200530181708 26 154 3.2 11.3 0.00 0.25 0.25 47 1009.1
20200530180708 25 220 4.8 12.9 0.00 0.25 0.25 46 1009.2
20200530175703 25 251 3.2 9.7 0.00 0.25 0.25 48 1009.2
20200530174703 25 202 3.2 11.3 0.00 0.25 0.25 48 1009.3
20200530173659 25 149 4.8 14.5 0.00 0.25 0.25 49 1009.4
20200530172700 25 58 1.6 6.4 0.00 0.25 0.25 52 1009.4
20200530171700 25 316 1.6 8.0 0.00 0.25 0.25 59 1009.5
20200530170700 26 186 1.6 6.4 0.00 0.25 0.25 50 1009.7
20200530165657 26 148 1.6 8.0 0.00 0.25 0.25 48 1009.7
20200530164655 26 296 4.8 11.3 0.00 0.25 0.25 52 1009.6
20200530163653 25 118 1.6 8.0 0.00 0.25 0.25 57 1009.8
20200530162655 25 8 3.2 12.9 0.00 0.25 0.25 54 1009.8
20200530161645 25 188 3.2 9.7 0.00 0.25 0.25 53 1010.0
20200530160642 24 243 3.2 11.3 0.00 0.25 0.25 54 1010.2
20200530155643 24 4 3.2 12.9 0.00 0.25 0.25 59 1010.2
20200530154642 23 219 3.2 9.7 0.00 0.25 0.25 58 1010.3
20200530153642 23 285 3.2 9.7 0.00 0.25 0.25 57 1010.3
20200530152639 23 74 1.6 14.5 0.00 0.25 0.25 58 1010.3
20200530151640 24 347 1.6 6.4 0.00 0.25 0.25 61 1010.3
20200530150640 24 296 1.6 12.9 0.00 0.25 0.25 60 1010.0
20200530145639 24 230 3.2 9.7 0.00 0.25 0.25 60 1010.0
20200530144640 24 178 3.2 12.9 0.00 0.25 0.25 62 1009.9
20200530143639 24 177 1.6 11.3 0.00 0.25 0.25 63 1009.9
20200530142640 23 81 1.6 12.9 0.00 0.25 0.25 63 1009.9
20200530141641 23 340 3.2 9.7 0.00 0.25 0.25 67 1009.8
20200530140639 22 258 1.6 9.7 0.00 0.25 0.25 68 1009.9
20200530135639 22 220 3.2 16.1 0.00 0.25 0.25 69 1009.9
20200530134639 21 281 3.2 12.9 0.00 0.25 0.25 74 1009.9
20200530133641 21 0 1.6 14.5 0.00 0.25 0.25 74 1010.2
20200530132635 21 289 3.2 14.5 0.00 0.25 0.25 73 1010.2
20200530131637 21 275 3.2 16.1 0.00 0.25 0.25 75 1010.1
20200530130637 20 246 1.6 8.0 0.00 0.25 0.25 80 1010.1
20200530125627 20 250 1.6 9.7 0.00 0.25 0.25 85 1010.1
20200530124624 20 134 1.6 9.7 0.00 0.25 0.25 89 1010.0
20200530123617 20 279 3.2 9.7 0.00 0.25 0.25 91 1009.9
20200530122614 20 171 1.6 9.7 0.00 0.25 0.25 92 1009.9
20200530121614 20 283 0.0 4.8 0.00 0.25 0.25 93 1009.7
20200530120610 20 207 1.6 9.7 0.00 0.25 0.25 93 1009.6
20200530115605 20 96 0.0 1.6 0.00 0.25 0.25 93 1009.6
20200530114601 20 204 0.0 3.2 0.00 0.25 0.25 93 1009.5
20200530113601 19 204 0.0 3.2 0.00 0.25 0.25 92 1009.4
20200530112602 19 214 1.6 6.4 0.00 0.25 0.25 93 1009.4
20200530111602 19 185 0.0 4.8 0.00 0.25 0.25 93 1009.2
20200530110601 19 185 0.0 4.8 0.00 0.25 0.25 93 1009.3
20200530105601 19 196 1.6 4.8 0.00 0.25 0.25 92 1009.3
20200530104601 19 168 0.0 3.2 0.00 0.25 0.25 92 1009.3
20200530103603 19 159 0.0 3.2 0.00 0.25 0.25 92 1009.2
20200530102602 19 199 0.0 3.2 0.00 0.25 0.25 92 1009.2
20200530101558 19 199 1.6 6.4 0.00 0.25 0.25 92 1009.3
20200530100557 19 206 1.6 4.8 0.00 0.25 0.25 92 1008.8
20200530095558 19 142 1.6 8.0 0.00 0.25 0.25 92 1008.8
20200530094557 19 229 1.6 3.2 0.00 0.25 0.25 92 1008.8
20200530093556 19 162 1.6 9.7 0.00 0.25 0.25 92 1008.9
20200530092553 19 188 1.6 4.8 0.00 0.25 0.25 92 1008.9
20200530091553 19 199 3.2 6.4 0.00 0.25 0.25 92 1008.7
20200530090551 19 231 3.2 9.7 0.00 0.25 0.25 92 1008.3
20200530085551 19 233 3.2 8.0 0.00 0.25 0.25 92 1008.3
20200530084552 20 212 3.2 11.3 0.03 0.25 0.25 91 1008.3
20200530083552 20 209 3.2 8.0 0.03 0.25 0.25 91 1008.6
20200530082549 20 220 3.2 8.0 0.05 0.25 0.25 91 1008.6